sat.trackr.live / text

‹ back to catalog

STARLINK-36565

NORAD 67544 · 2026-014N

PAYLOAD ACTIVE UNKNOWN

§ Identity

Operator
Country
US
Launch date
2026-01-22
Launch site
AFWTR
Launch vehicle
Mass (kg)
RCS (m²)

Purposes: comms

External: N2YO · Heavens-Above · Gunter

§ Orbital elements

Epoch: 2026-05-25T02:32:26.305728Z

Period
93.91 min
Inclination
97.2866°
Eccentricity
0.0001481
Mean motion
15.33447524 rev/d
Perigee alt
464.5 km
Apogee alt
466.5 km
Semi-major
6,843.7 km
B*
5.7273e-4
RAAN
32.1411°
Arg perigee
90.0909°
Mean anomaly
270.0503°
Rev number
2,049

§ Raw data

STARLINK-365651 67544U 26014N   26145.10586002  .00018462  00000+0  57273-3 0  99962 67544  97.2866  32.1411 0001481  90.0909 270.0503 15.33447524 20499

JSON: /api/v1/satellites/67544 · /tle

For live sub-satellite position, see the globe view (requires WebGL).

§ Visibility from observer

Set your observer location to see the next 7 days of passes ≥ 10°. The values pass through the URL so the page stays shareable.

No JS? Fill the form by hand. The geolocation button needs JavaScript.